{"data":{"norad_id":58948,"epoch":"2026-05-25T04:46:57.485280Z","epoch_age_seconds":47983,"freshness":"FRESH","line1":"1 58948U 24027T   26145.19927645  .00000877  00000+0  41753-4 0  9995","line2":"2 58948  53.1610 312.0214 0001270  84.8125 275.3021 15.30194146129076","mean_motion":15.30194146,"eccentricity":0.000127,"inclination_deg":53.161,"raan_deg":312.0214,"arg_perigee_deg":84.8125,"mean_anomaly_deg":275.3021,"bstar":4.1753e-5,"rev_number":12907,"period_min":94.105705721344,"perigee_km":474.3621705312,"apogee_km":476.10292639651,"semimajor_km":6853.3695484639,"source":"CELESTRAK","updated_at":"2026-05-25T13:38:18.791910Z"}}